Weather History for Lewistown, MT

Change the Weather History Date:

Tuesday, January 7, 2014

  Actual Average Record
Temperature  
Mean Temperature 27 °F 23 °F  
Max Temperature 35 °F 34 °F 68 °F (2003)
Min Temperature 18 °F 12 °F -30 °F (1937)
Degree Days  
Heating Degree Days 38 42  
Month to date heating degree days 332 294  
Since 1 July heating degree days 3725 3716  
Cooling Degree Days 0 0  
Month to date cooling degree days 0 0  
Year to date cooling degree days 0 0  
Moisture  
Dew Point 21 °F    
Average Humidity 80    
Maximum Humidity 96    
Minimum Humidity 64    
Precipitation  
Precipitation 0.00 in 0.02 in 0.27 in (1971)
Month to date precipitation 0.27 0.14  
Year to date precipitation 0.27 0.14  
Snow  
Snow 0.00 in - - ()
Snow Depth 2.00 in    
Sea Level Pressure  
Sea Level Pressure 30.03 in    
Wind  
Wind Speed 5 mph (SSW)    
Max Wind Speed 10 mph    
Max Gust Speed 13 mph    
Visibility 10 miles    
Events      
T = Trace of Precipitation, MM = Missing Value Source: NWS Daily Summary

Daily Weather History Graph

Daily Weather History Graph

Search for Another Location

Airport:

Trip Planner

Search our weather history database for the weather conditions in past years. The results will help you decide how hot, cold, wet, or windy it might be!

Date:

Astronomy

Jan. 07, 2014 Rise Set
Actual Time 8:03 AM MST 4:45 PM MST
Civil Twilight 7:28 AM MST 5:20 PM MST
Nautical Twilight 6:49 AM MST 5:59 PM MST
Astronomical Twilight 6:12 AM MST 6:35 PM MST
Moon 11:23 AM MST (1/7) No Moon Set
Length of Visible Light 9h 52m
Length of Day
8h 42m
Waxing Crescent, 46% of the Moon is Illuminated
Jan 7
Waxing Crescent
Jan 7
First Quarter
Jan 15
Full
Jan 23
Last Quarter
Jan 30
New

Hourly Weather History & Observations

Time (MST) Temp. Windchill Dew Point Humidity Pressure Visibility Wind Dir Wind Speed Gust Speed Precip Events Conditions
12:54 AM 28.9 °F 19.8 °F 21.0 °F 72% 30.03 in 10.0 mi WSW 10.4 mph - N/A   Overcast
1:54 AM 28.9 °F 20.4 °F 21.0 °F 72% 30.03 in 10.0 mi WSW 9.2 mph - N/A   Overcast
2:54 AM 28.0 °F 20.0 °F 19.0 °F 69% 30.04 in 10.0 mi WSW 8.1 mph - N/A   Partly Cloudy
3:54 AM 26.1 °F 20.5 °F 18.0 °F 71% 30.05 in 10.0 mi WNW 4.6 mph - N/A   Clear
4:54 AM 27.0 °F 18.0 °F 19.0 °F 72% 30.04 in 10.0 mi WSW 9.2 mph - N/A   Partly Cloudy
5:54 AM 25.0 °F 20.7 °F 19.0 °F 78% 30.04 in 10.0 mi SSE 3.5 mph - N/A   Clear
6:54 AM 25.0 °F 19.3 °F 19.0 °F 78% 30.05 in 10.0 mi ESE 4.6 mph - N/A   Overcast
7:54 AM 24.1 °F 19.7 °F 18.0 °F 77% 30.05 in 10.0 mi ESE 3.5 mph - N/A   Mostly Cloudy
8:54 AM 23.0 °F 15.8 °F 19.0 °F 85% 30.07 in 10.0 mi ESE 5.8 mph - N/A   Mostly Cloudy
9:54 AM 26.1 °F 20.5 °F 19.9 °F 78% 30.06 in 10.0 mi SE 4.6 mph - N/A   Overcast
10:54 AM 28.9 °F - 21.9 °F 75% 30.06 in 10.0 mi Calm Calm - N/A   Overcast
11:54 AM 30.9 °F - 21.0 °F 67% 30.02 in 10.0 mi Calm Calm - N/A   Overcast
12:54 PM 34.0 °F - 23.0 °F 64% 29.99 in 10.0 mi Calm Calm - N/A   Overcast
1:54 PM 34.0 °F 28.0 °F 25.0 °F 70% 29.98 in 10.0 mi WSW 6.9 mph - N/A   Overcast
2:54 PM 34.0 °F 26.6 °F 25.0 °F 70% 29.99 in 10.0 mi West 9.2 mph - N/A   Overcast
3:54 PM 33.1 °F 28.7 °F 25.0 °F 72% 30.01 in 10.0 mi NW 4.6 mph - N/A   Overcast
4:54 PM 32.0 °F 25.6 °F 26.1 °F 79% 30.01 in 10.0 mi WSW 6.9 mph - N/A   Overcast
5:54 PM 32.0 °F 24.8 °F 24.1 °F 73% 30.02 in 10.0 mi WSW 8.1 mph - N/A   Overcast
6:54 PM 30.0 °F 23.2 °F 24.1 °F 79% 30.03 in 10.0 mi WSW 6.9 mph - N/A   Overcast
7:54 PM 28.9 °F - 25.0 °F 85% 30.04 in 10.0 mi Calm Calm - N/A   Overcast
8:54 PM 28.0 °F 24.2 °F 24.1 °F 85% 30.03 in 10.0 mi South 3.5 mph - N/A   Overcast
9:54 PM 23.0 °F 18.4 °F 19.9 °F 88% 30.04 in 10.0 mi SSE 3.5 mph - N/A   Clear
10:54 PM 23.0 °F 17.0 °F 21.0 °F 92% 30.04 in 10.0 mi SE 4.6 mph - N/A   Clear
11:54 PM 19.9 °F 13.4 °F 17.1 °F 89% 30.02 in 10.0 mi SE 4.6 mph - N/A   Clear